When you browse on this site, cookies collect data to enhance your experience and personalize the content and advertising you see.
Visit our Privacy Policy to learn more. By continuing to use the site, you agree to this use of cookies and data.
  • en France
  • Liste des pays
  • À 7 jours
  • Température de l'eau
  • Carte satellitaire
  • Carte météo
  • Widgets météo
  • user-avatar
    Se connecter

    Météo par heure à Durrёs

    Ce jour, 17 Juin, Lundi

    Heure Température Précipitation Vent Pression Humidité
    00:00 +25°C° 0 mm 1 m/s 757 mmHg 81%
    01:00 +25°C° 0 mm 2 m/s 757 mmHg 79%
    02:00 +24°C° 0 mm 2 m/s 757 mmHg 81%
    03:00 +23°C° 0 mm 2 m/s 757 mmHg 82%
    04:00 +23°C° 0 mm 2 m/s 757 mmHg 84%
    05:00 +25°C° 0 mm 1 m/s 757 mmHg 79%
    06:00 +26°C° 0 mm 1 m/s 757 mmHg 73%
    07:00 +28°C° 0 mm 1 m/s 757 mmHg 68%
    08:00 +29°C° 0 mm 2 m/s 757 mmHg 63%
    09:00 +30°C° 0 mm 2 m/s 757 mmHg 58%
    10:00 +31°C° 0 mm 2 m/s 757 mmHg 53%
    11:00 +33°C° 0 mm 3 m/s 757 mmHg 52%
    12:00 +33°C° 0 mm 3 m/s 757 mmHg 50%
    13:00 +34°C° 0 mm 3 m/s 757 mmHg 49%
    14:00 +33°C° 0 mm 3 m/s 757 mmHg 51%
    15:00 +33°C° 0 mm 3 m/s 757 mmHg 53%
    16:00 +31°C° 0 mm 3 m/s 757 mmHg 55%
    17:00 +29°C° 0.1 mm 3 m/s 757 mmHg 63%
    18:00 +28°C° 0.1 mm 2 m/s 757 mmHg 71%
    19:00 +26°C° 0.1 mm 2 m/s 757 mmHg 79%
    20:00 +25°C° 0.1 mm 1 m/s 757 mmHg 80%
    21:00 +25°C° 0.1 mm 1 m/s 758 mmHg 81%
    22:00 +22°C° 0.1 mm 0 m/s 758 mmHg 82%
    23:00 +22°C° 0.1 mm 0 m/s 758 mmHg 82%

    Demain, 18 Juin, Mardi

    Heure Température Précipitation Vent Pression Humidité
    00:00 +22°C° 0.1 mm 0 m/s 758 mmHg 82%
    01:00 +21°C° 0.1 mm 0 m/s 758 mmHg 82%
    02:00 +23°C° 0.1 mm 1 m/s 758 mmHg 81%
    03:00 +23°C° 0.1 mm 1 m/s 758 mmHg 81%
    04:00 +23°C° 0.1 mm 1 m/s 758 mmHg 80%
    05:00 +24°C° 0 mm 1 m/s 758 mmHg 75%
    06:00 +25°C° 0 mm 1 m/s 759 mmHg 70%
    07:00 +27°C° 0 mm 1 m/s 759 mmHg 64%
    08:00 +28°C° 0 mm 1 m/s 759 mmHg 60%
    09:00 +29°C° 0 mm 1 m/s 759 mmHg 56%
    10:00 +31°C° 0 mm 1 m/s 759 mmHg 52%
    11:00 +31°C° 0 mm 2 m/s 758 mmHg 53%
    12:00 +33°C° 0 mm 3 m/s 758 mmHg 53%
    13:00 +33°C° 0 mm 4 m/s 758 mmHg 53%
    14:00 +32°C° 0 mm 4 m/s 758 mmHg 56%
    15:00 +30°C° 0 mm 4 m/s 758 mmHg 58%
    16:00 +30°C° 0 mm 4 m/s 758 mmHg 61%
    17:00 +28°C° 0 mm 3 m/s 758 mmHg 68%
    18:00 +27°C° 0 mm 3 m/s 758 mmHg 74%
    19:00 +25°C° 0 mm 2 m/s 758 mmHg 81%
    20:00 +25°C° 0 mm 2 m/s 758 mmHg 83%
    21:00 +24°C° 0 mm 1 m/s 758 mmHg 84%
    22:00 +24°C° 0 mm 1 m/s 758 mmHg 86%
    23:00 +23°C° 0 mm 1 m/s 758 mmHg 85%

    Après-demain, 19 Juin, Mercredi

    Heure Température Précipitation Vent Pression Humidité
    00:00 +23°C° 0 mm 2 m/s 758 mmHg 85%
    01:00 +23°C° 0 mm 2 m/s 758 mmHg 84%
    02:00 +21°C° 0 mm 2 m/s 758 mmHg 85%
    03:00 +21°C° 0 mm 2 m/s 758 mmHg 86%
    04:00 +21°C° 0 mm 2 m/s 758 mmHg 86%
    05:00 +23°C° 0 mm 2 m/s 758 mmHg 81%
    06:00 +25°C° 0 mm 1 m/s 758 mmHg 75%
    07:00 +27°C° 0 mm 1 m/s 758 mmHg 70%
    08:00 +28°C° 0 mm 1 m/s 758 mmHg 63%
    09:00 +29°C° 0 mm 2 m/s 758 mmHg 57%
    10:00 +31°C° 0 mm 2 m/s 758 mmHg 51%
    11:00 +31°C° 0 mm 3 m/s 757 mmHg 52%
    12:00 +32°C° 0 mm 4 m/s 757 mmHg 53%
    13:00 +32°C° 0 mm 4 m/s 757 mmHg 54%
    14:00 +32°C° 0 mm 4 m/s 757 mmHg 56%
    15:00 +30°C° 0 mm 4 m/s 757 mmHg 57%
    16:00 +30°C° 0 mm 4 m/s 757 mmHg 58%
    17:00 +28°C° 0 mm 3 m/s 757 mmHg 65%
    18:00 +26°C° 0 mm 2 m/s 757 mmHg 72%
    19:00 +25°C° 0 mm 2 m/s 757 mmHg 80%
    20:00 +24°C° 0 mm 2 m/s 757 mmHg 82%
    21:00 +23°C° 0 mm 1 m/s 758 mmHg 84%
    22:00 +22°C° 0 mm 1 m/s 758 mmHg 87%
    23:00 +22°C° 0 mm 1 m/s 758 mmHg 85%

    20 Juin, Jeudi

    Heure Température Précipitation Vent Pression Humidité
    00:00 +22°C° 0 mm 1 m/s 757 mmHg 84%
    01:00 +22°C° 0 mm 1 m/s 757 mmHg 82%
    02:00 +22°C° 0 mm 1 m/s 757 mmHg 82%
    03:00 +22°C° 0 mm 1 m/s 757 mmHg 82%
    04:00 +21°C° 0 mm 2 m/s 757 mmHg 81%
    05:00 +23°C° 0 mm 1 m/s 757 mmHg 78%
    06:00 +25°C° 0 mm 1 m/s 758 mmHg 74%
    07:00 +26°C° 0 mm 1 m/s 758 mmHg 70%
    08:00 +27°C° 0 mm 1 m/s 758 mmHg 65%
    09:00 +29°C° 0 mm 2 m/s 758 mmHg 60%
    10:00 +30°C° 0 mm 2 m/s 758 mmHg 55%
    11:00 +30°C° 0 mm 3 m/s 758 mmHg 55%
    12:00 +30°C° 0 mm 3 m/s 757 mmHg 55%
    13:00 +32°C° 0 mm 4 m/s 757 mmHg 55%
    14:00 +30°C° 0 mm 4 m/s 757 mmHg 57%
    15:00 +30°C° 0 mm 4 m/s 757 mmHg 58%
    16:00 +30°C° 0 mm 4 m/s 757 mmHg 59%
    17:00 +28°C° 0 mm 3 m/s 757 mmHg 66%
    18:00 +26°C° 0 mm 2 m/s 757 mmHg 73%
    19:00 +25°C° 0 mm 1 m/s 758 mmHg 80%
    20:00 +24°C° 0 mm 1 m/s 758 mmHg 82%
    21:00 +23°C° 0 mm 1 m/s 758 mmHg 84%
    22:00 +21°C° 0 mm 0 m/s 758 mmHg 87%
    23:00 +20°C° 0 mm 0 m/s 758 mmHg 87%

    21 Juin, Vendredi

    Heure Température Précipitation Vent Pression Humidité
    00:00 +20°C° 0 mm 0 m/s 758 mmHg 87%
    01:00 +22°C° 0 mm 1 m/s 758 mmHg 88%
    02:00 +22°C° 0 mm 1 m/s 758 mmHg 88%
    03:00 +22°C° 0 mm 1 m/s 758 mmHg 88%
    04:00 +21°C° 0 mm 1 m/s 758 mmHg 88%
    05:00 +23°C° 0 mm 1 m/s 758 mmHg 81%
    06:00 +25°C° 0 mm 1 m/s 758 mmHg 75%
    07:00 +27°C° 0 mm 1 m/s 759 mmHg 68%
    08:00 +28°C° 0 mm 1 m/s 759 mmHg 63%
    09:00 +29°C° 0 mm 1 m/s 759 mmHg 58%
    10:00 +31°C° 0 mm 1 m/s 759 mmHg 53%
    11:00 +31°C° 0 mm 2 m/s 759 mmHg 52%
    12:00 +33°C° 0 mm 3 m/s 758 mmHg 51%
    13:00 +34°C° 0 mm 4 m/s 758 mmHg 50%
    14:00 +33°C° 0 mm 4 m/s 758 mmHg 53%
    15:00 +33°C° 0 mm 4 m/s 758 mmHg 55%
    16:00 +32°C° 0 mm 4 m/s 758 mmHg 57%
    17:00 +29°C° 0 mm 3 m/s 758 mmHg 64%
    18:00 +28°C° 0 mm 2 m/s 758 mmHg 71%
    19:00 +26°C° 0 mm 2 m/s 758 mmHg 78%
    20:00 +25°C° 0 mm 1 m/s 758 mmHg 80%
    21:00 +24°C° 0 mm 1 m/s 759 mmHg 83%
    22:00 +24°C° 0 mm 1 m/s 759 mmHg 85%
    23:00 +24°C° 0 mm 1 m/s 759 mmHg 86%

    22 Juin, Samedi

    Heure Température Précipitation Vent Pression Humidité
    00:00 +24°C° 0 mm 1 m/s 759 mmHg 86%
    01:00 +24°C° 0 mm 1 m/s 758 mmHg 86%
    02:00 +23°C° 0 mm 1 m/s 758 mmHg 86%
    03:00 +21°C° 0 mm 0 m/s 758 mmHg 86%
    04:00 +21°C° 0 mm 0 m/s 758 mmHg 86%
    05:00 +24°C° 0 mm 1 m/s 758 mmHg 80%
    06:00 +26°C° 0 mm 1 m/s 759 mmHg 73%
    07:00 +28°C° 0 mm 2 m/s 759 mmHg 67%
    08:00 +30°C° 0 mm 2 m/s 759 mmHg 59%
    09:00 +32°C° 0 mm 1 m/s 759 mmHg 52%
    10:00 +34°C° 0 mm 1 m/s 759 mmHg 44%
    11:00 +35°C° 0 mm 1 m/s 758 mmHg 41%
    12:00 +36°C° 0 mm 2 m/s 758 mmHg 39%
    13:00 +37°C° 0 mm 3 m/s 758 mmHg 36%
    14:00 +36°C° 0 mm 3 m/s 758 mmHg 40%
    15:00 +35°C° 0 mm 3 m/s 758 mmHg 45%
    16:00 +34°C° 0 mm 3 m/s 758 mmHg 49%
    17:00 +31°C° 0 mm 3 m/s 758 mmHg 55%
    18:00 +29°C° 0 mm 2 m/s 758 mmHg 60%
    19:00 +28°C° 0 mm 2 m/s 758 mmHg 66%
    20:00 +27°C° 0 mm 1 m/s 758 mmHg 65%
    21:00 +27°C° 0 mm 1 m/s 759 mmHg 64%
    22:00 +26°C° 0 mm 1 m/s 759 mmHg 63%
    23:00 +26°C° 0 mm 1 m/s 759 mmHg 63%
    Voir plus